Wetterdaten: Woche 13.11.17 - 19.11.17 (KW46)
Datum Zeit Temp. Aussen Temp. o. S. +5cm Feuchte Auss BlattFeu 1 Luftdruck Regen Sonnenschein Regendauer Solar Windben Empfang
13.11.2017 00:00 3,5 C 2,7 C 1,5 C 96 % 2 lf 1008,4 hPa 0,0 l/m 0,00 h 0,00 h 0 W/m 13,7 km/h (3 Bft) 93,35 %
13.11.2017 01:00 3,3 C 2,8 C 1,6 C 96 % 3 lf 1009,0 hPa 0,0 l/m 0,00 h 0,00 h 0 W/m 16,0 km/h (3 Bft) 96,05 %
13.11.2017 02:00 3,3 C 2,8 C 1,4 C 96 % 3 lf 1009,6 hPa 0,0 l/m 0,00 h 0,00 h 0 W/m 13,6 km/h (3 Bft) 97,57 %
13.11.2017 03:00 3,3 C 2,8 C 1,5 C 97 % 4 lf 1010,5 hPa 0,2 l/m 0,00 h 0,00 h 0 W/m 14,3 km/h (3 Bft) 95,67 %
13.11.2017 04:00 3,7 C 3,6 C 2,4 C 97 % 12 lf 1011,3 hPa 0,0 l/m 0,00 h 0,37 h 0 W/m 21,1 km/h (4 Bft) 95,32 %
13.11.2017 05:00 4,3 C 4,0 C 2,9 C 97 % 15 lf 1012,1 hPa 0,4 l/m 0,00 h 0,23 h 0 W/m 18,3 km/h (3 Bft) 98,14 %
13.11.2017 06:00 4,6 C 4,3 C 3,1 C 97 % 15 lf 1013,0 hPa 0,0 l/m 0,00 h 0,37 h 0 W/m 18,4 km/h (3 Bft) 96,62 %
13.11.2017 07:00 4,6 C 3,9 C 2,7 C 97 % 15 lf 1013,9 hPa 0,0 l/m 0,00 h 0,07 h 6 W/m 13,7 km/h (3 Bft) 94,66 %
13.11.2017 08:00 4,0 C 3,6 C 2,1 C 97 % 15 lf 1014,8 hPa 0,0 l/m 0,17 h 0,00 h 37 W/m 15,0 km/h (3 Bft) 97,66 %
13.11.2017 09:00 4,4 C 6,1 C 3,3 C 97 % 15 lf 1015,6 hPa 0,0 l/m 1,00 h 0,00 h 130 W/m 18,9 km/h (3 Bft) 96,23 %
13.11.2017 10:00 6,0 C 13,7 C 4,6 C 97 % 9 lf 1016,4 hPa 0,0 l/m 1,00 h 0,00 h 243 W/m 22,2 km/h (4 Bft) 97,36 %
13.11.2017 11:00 8,0 C 17,3 C 5,8 C 91 % 0 lf 1016,7 hPa 0,0 l/m 1,00 h 0,00 h 310 W/m 22,4 km/h (4 Bft) 98,94 %
13.11.2017 12:00 9,2 C 15,7 C 6,8 C 83 % 0 lf 1017,0 hPa 0,0 l/m 0,90 h 0,00 h 310 W/m 27,6 km/h (4 Bft) 94,96 %
13.11.2017 13:00 9,3 C 11,5 C 6,8 C 81 % 0 lf 1017,3 hPa 0,2 l/m 0,37 h 0,00 h 166 W/m 24,1 km/h (4 Bft) 95,88 %
13.11.2017 14:00 9,5 C 14,8 C 7,5 C 81 % 0 lf 1017,6 hPa 0,0 l/m 0,90 h 0,00 h 187 W/m 18,5 km/h (3 Bft) 98,22 %
13.11.2017 15:00 9,3 C 9,5 C 7,2 C 79 % 0 lf 1018,3 hPa 0,0 l/m 0,37 h 0,00 h 75 W/m 19,0 km/h (3 Bft) 94,73 %
13.11.2017 16:00 8,3 C 7,0 C 5,1 C 82 % 7 lf 1018,9 hPa 0,4 l/m 0,23 h 0,20 h 20 W/m 9,3 km/h (2 Bft) 98,01 %
13.11.2017 17:00 7,3 C 6,0 C 4,4 C 87 % 15 lf 1019,6 hPa 0,0 l/m 0,00 h 0,00 h 0 W/m 6,8 km/h (2 Bft) 96,02 %
13.11.2017 18:00 6,5 C 5,6 C 4,0 C 90 % 15 lf 1020,2 hPa 0,0 l/m 0,00 h 0,00 h 0 W/m 7,7 km/h (2 Bft) 98,05 %
13.11.2017 19:00 5,9 C 5,1 C 3,6 C 91 % 15 lf 1020,9 hPa 0,0 l/m 0,00 h 0,00 h 0 W/m 9,3 km/h (2 Bft) 94,79 %
13.11.2017 20:00 5,4 C 4,1 C 2,5 C 92 % 15 lf 1021,2 hPa 0,0 l/m 0,00 h 0,00 h 0 W/m 11,5 km/h (2 Bft) 96,70 %
13.11.2017 21:00 4,5 C 3,0 C 1,3 C 92 % 15 lf 1021,5 hPa 0,0 l/m 0,00 h 0,00 h 0 W/m 7,4 km/h (2 Bft) 95,87 %
13.11.2017 22:00 3,6 C 2,2 C 0,8 C 92 % 15 lf 1022,0 hPa 0,0 l/m 0,00 h 0,00 h 0 W/m 5,9 km/h (2 Bft) 97,39 %
13.11.2017 23:00 2,9 C 1,6 C 0,5 C 93 % 15 lf 1022,3 hPa 0,0 l/m 0,00 h 0,00 h 0 W/m 7,7 km/h (2 Bft) 98,44 %
14.11.2017 00:00 2,5 C 1,4 C 0,4 C 94 % 15 lf 1022,4 hPa 0,0 l/m 0,00 h 0,00 h 0 W/m 9,2 km/h (2 Bft) 92,16 %
14.11.2017 01:00 2,1 C 1,1 C 0,0 C 95 % 15 lf 1022,5 hPa 0,0 l/m 0,00 h 0,00 h 0 W/m 9,3 km/h (2 Bft) 98,51 %
14.11.2017 02:00 1,9 C 1,1 C 0,0 C 95 % 15 lf 1022,7 hPa 0,0 l/m 0,00 h 0,00 h 0 W/m 9,7 km/h (2 Bft) 96,58 %
14.11.2017 03:00 1,7 C 0,8 C -0,1 C 96 % 15 lf 1022,6 hPa 0,0 l/m 0,00 h 0,00 h 0 W/m 8,3 km/h (2 Bft) 95,44 %
14.11.2017 04:00 1,7 C 1,3 C 0,5 C 96 % 15 lf 1022,7 hPa 0,0 l/m 0,00 h 0,00 h 0 W/m 4,7 km/h (1 Bft) 96,35 %
14.11.2017 05:00 2,1 C 1,7 C 0,6 C 96 % 15 lf 1022,8 hPa 0,0 l/m 0,00 h 0,00 h 0 W/m 12,9 km/h (3 Bft) 96,13 %
14.11.2017 06:00 2,2 C 1,7 C 0,8 C 97 % 15 lf 1022,8 hPa 0,0 l/m 0,00 h 0,00 h 0 W/m 12,4 km/h (3 Bft) 96,33 %
14.11.2017 07:00 2,6 C 2,6 C 1,6 C 97 % 15 lf 1023,3 hPa 0,0 l/m 0,00 h 0,00 h 6 W/m 12,7 km/h (3 Bft) 96,81 %
14.11.2017 08:00 3,2 C 3,4 C 2,3 C 97 % 15 lf 1023,6 hPa 0,0 l/m 0,23 h 0,00 h 33 W/m 16,0 km/h (3 Bft) 96,38 %
14.11.2017 09:00 4,2 C 5,5 C 3,9 C 98 % 1 lf 1023,7 hPa 0,0 l/m 0,37 h 0,00 h 88 W/m 13,5 km/h (3 Bft) 95,16 %
14.11.2017 10:00 5,4 C 7,7 C 5,1 C 97 % 0 lf 1023,6 hPa 0,0 l/m 0,37 h 0,00 h 139 W/m 15,4 km/h (3 Bft) 97,21 %
14.11.2017 11:00 6,6 C 8,2 C 6,0 C 94 % 0 lf 1023,7 hPa 0,0 l/m 0,17 h 0,00 h 140 W/m 22,0 km/h (4 Bft) 97,01 %
14.11.2017 12:00 7,4 C 8,7 C 7,0 C 87 % 0 lf 1023,6 hPa 0,0 l/m 0,23 h 0,00 h 160 W/m 20,3 km/h (4 Bft) 95,55 %
14.11.2017 13:00 8,1 C 9,5 C 8,1 C 83 % 0 lf 1023,2 hPa 0,0 l/m 0,57 h 0,00 h 165 W/m 22,6 km/h (4 Bft) 96,23 %
14.11.2017 14:00 8,5 C 9,3 C 8,0 C 82 % 0 lf 1022,9 hPa 0,0 l/m 0,00 h 0,00 h 99 W/m 18,1 km/h (3 Bft) 97,65 %
14.11.2017 15:00 8,6 C 8,9 C 7,8 C 82 % 0 lf 1022,9 hPa 0,0 l/m 0,00 h 0,00 h 51 W/m 17,2 km/h (3 Bft) 96,58 %
14.11.2017 16:00 8,6 C 8,4 C 7,2 C 83 % 0 lf 1022,9 hPa 0,0 l/m 0,00 h 0,00 h 13 W/m 14,9 km/h (3 Bft) 95,44 %
14.11.2017 17:00 8,5 C 8,3 C 7,1 C 85 % 0 lf 1023,1 hPa 0,0 l/m 0,00 h 0,00 h 0 W/m 14,0 km/h (3 Bft) 95,73 %
14.11.2017 18:00 8,3 C 8,0 C 6,7 C 87 % 0 lf 1023,4 hPa 0,0 l/m 0,00 h 0,07 h 0 W/m 16,9 km/h (3 Bft) 98,05 %
14.11.2017 19:00 8,0 C 7,8 C 6,7 C 89 % 0 lf 1023,6 hPa 0,0 l/m 0,00 h 0,00 h 0 W/m 16,6 km/h (3 Bft) 95,23 %
14.11.2017 20:00 7,9 C 7,8 C 6,7 C 90 % 0 lf 1023,8 hPa 0,0 l/m 0,00 h 0,00 h 0 W/m 13,5 km/h (3 Bft) 96,51 %
14.11.2017 21:00 7,9 C 7,8 C 6,7 C 90 % 0 lf 1023,9 hPa 0,0 l/m 0,00 h 0,00 h 0 W/m 15,5 km/h (3 Bft) 97,22 %
14.11.2017 22:00 7,9 C 7,4 C 6,4 C 91 % 0 lf 1024,0 hPa 0,0 l/m 0,00 h 0,00 h 0 W/m 15,2 km/h (3 Bft) 97,44 %
14.11.2017 23:00 7,5 C 6,8 C 5,8 C 93 % 12 lf 1024,2 hPa 0,0 l/m 0,00 h 0,20 h 0 W/m 14,7 km/h (3 Bft) 94,09 %
15.11.2017 00:00 7,2 C 6,7 C 5,6 C 95 % 15 lf 1024,4 hPa 0,0 l/m 0,00 h 0,00 h 0 W/m 11,4 km/h (2 Bft) 93,52 %
15.11.2017 01:00 7,1 C 6,7 C 5,6 C 96 % 14 lf 1024,4 hPa 0,0 l/m 0,00 h 0,00 h 0 W/m 12,5 km/h (3 Bft) 96,89 %
15.11.2017 02:00 6,9 C 6,7 C 5,6 C 96 % 7 lf 1024,4 hPa 0,0 l/m 0,00 h 0,00 h 0 W/m 14,5 km/h (3 Bft) 97,08 %
15.11.2017 03:00 6,9 C 6,7 C 5,6 C 97 % 1 lf 1024,3 hPa 0,2 l/m 0,00 h 0,00 h 0 W/m 14,4 km/h (3 Bft) 94,80 %
15.11.2017 04:00 7,0 C 7,0 C 5,9 C 97 % 1 lf 1024,0 hPa 0,0 l/m 0,00 h 0,00 h 0 W/m 12,9 km/h (3 Bft) 98,00 %
15.11.2017 05:00 7,1 C 7,2 C 6,1 C 97 % 1 lf 1024,1 hPa 0,0 l/m 0,00 h 0,00 h 0 W/m 12,3 km/h (3 Bft) 96,54 %
15.11.2017 06:00 7,2 C 7,2 C 6,1 C 97 % 1 lf 1024,1 hPa 0,0 l/m 0,00 h 0,00 h 0 W/m 11,4 km/h (2 Bft) 97,19 %
15.11.2017 07:00 7,3 C 7,2 C 6,2 C 97 % 0 lf 1024,4 hPa 0,0 l/m 0,00 h 0,00 h 6 W/m 9,9 km/h (2 Bft) 94,81 %
15.11.2017 08:00 7,5 C 7,7 C 6,7 C 97 % 0 lf 1024,8 hPa 0,0 l/m 0,00 h 0,00 h 15 W/m 8,9 km/h (2 Bft) 97,01 %
15.11.2017 09:00 7,8 C 7,8 C 7,1 C 97 % 9 lf 1025,1 hPa 0,0 l/m 0,00 h 0,07 h 36 W/m 11,0 km/h (2 Bft) 96,79 %
15.11.2017 10:00 8,1 C 7,8 C 7,2 C 97 % 15 lf 1025,0 hPa 0,2 l/m 0,00 h 0,40 h 47 W/m 9,5 km/h (2 Bft) 96,87 %
15.11.2017 11:00 8,4 C 8,3 C 7,8 C 98 % 15 lf 1025,1 hPa 0,0 l/m 0,00 h 0,03 h 61 W/m 9,3 km/h (2 Bft) 95,16 %
15.11.2017 12:00 8,7 C 8,4 C 7,8 C 98 % 15 lf 1024,8 hPa 0,2 l/m 0,00 h 0,13 h 40 W/m 6,9 km/h (2 Bft) 96,68 %
15.11.2017 13:00 8,9 C 8,8 C 8,2 C 98 % 15 lf 1024,5 hPa 0,2 l/m 0,00 h 0,10 h 49 W/m 8,7 km/h (2 Bft) 96,44 %
15.11.2017 14:00 9,1 C 8,9 C 8,3 C 98 % 15 lf 1024,3 hPa 0,2 l/m 0,00 h 0,13 h 27 W/m 4,7 km/h (1 Bft) 96,30 %
15.11.2017 15:00 9,1 C 8,7 C 8,0 C 98 % 15 lf 1024,3 hPa 0,4 l/m 0,00 h 0,17 h 17 W/m 6,1 km/h (2 Bft) 96,29 %
15.11.2017 16:00 8,8 C 8,3 C 7,7 C 98 % 15 lf 1024,4 hPa 0,2 l/m 0,00 h 0,20 h 7 W/m 8,1 km/h (2 Bft) 97,44 %
15.11.2017 17:00 8,3 C 7,8 C 7,2 C 98 % 15 lf 1024,3 hPa 0,0 l/m 0,00 h 0,15 h 0 W/m 8,6 km/h (2 Bft) 98,01 %
15.11.2017 18:00 8,2 C 7,8 C 7,2 C 98 % 15 lf 1024,4 hPa 0,2 l/m 0,00 h 0,30 h 0 W/m 7,6 km/h (2 Bft) 95,81 %
15.11.2017 19:00 8,2 C 7,8 C 7,2 C 99 % 15 lf 1024,4 hPa 0,2 l/m 0,00 h 0,30 h 0 W/m 7,2 km/h (2 Bft) 96,24 %
15.11.2017 20:00 8,2 C 7,8 C 7,2 C 99 % 15 lf 1024,4 hPa 0,0 l/m 0,00 h 0,00 h 0 W/m 7,5 km/h (2 Bft) 96,44 %
15.11.2017 21:00 8,1 C 7,8 C 7,2 C 99 % 15 lf 1024,2 hPa 0,0 l/m 0,00 h 0,00 h 0 W/m 8,8 km/h (2 Bft) 97,79 %
15.11.2017 22:00 8,1 C 7,8 C 7,2 C 99 % 15 lf 1024,2 hPa 0,0 l/m 0,00 h 0,00 h 0 W/m 8,5 km/h (2 Bft) 94,24 %
15.11.2017 23:00 8,1 C 7,8 C 7,0 C 99 % 15 lf 1024,2 hPa 0,0 l/m 0,00 h 0,00 h 0 W/m 7,7 km/h (2 Bft) 96,93 %
16.11.2017 00:00 8,0 C 7,8 C 6,7 C 99 % 15 lf 1024,0 hPa 0,0 l/m 0,00 h 0,00 h 0 W/m 8,6 km/h (2 Bft) 96,83 %
16.11.2017 01:00 7,9 C 7,8 C 6,7 C 99 % 15 lf 1023,6 hPa 0,0 l/m 0,00 h 0,00 h 0 W/m 7,8 km/h (2 Bft) 97,79 %
16.11.2017 02:00 7,9 C 7,8 C 6,7 C 99 % 15 lf 1023,2 hPa 0,0 l/m 0,00 h 0,00 h 0 W/m 9,3 km/h (2 Bft) 93,65 %
16.11.2017 03:00 7,9 C 7,8 C 6,7 C 99 % 15 lf 1023,2 hPa 0,0 l/m 0,00 h 0,00 h 0 W/m 7,9 km/h (2 Bft) 97,28 %
16.11.2017 04:00 7,9 C 7,8 C 6,7 C 99 % 15 lf 1023,1 hPa 0,0 l/m 0,00 h 0,00 h 0 W/m 9,2 km/h (2 Bft) 97,18 %
16.11.2017 05:00 7,7 C 7,2 C 6,7 C 99 % 15 lf 1022,7 hPa 0,0 l/m 0,00 h 0,00 h 0 W/m 11,9 km/h (2 Bft) 97,19 %
16.11.2017 06:00 7,4 C 7,1 C 6,4 C 99 % 13 lf 1022,6 hPa 0,0 l/m 0,00 h 0,00 h 0 W/m 12,2 km/h (2 Bft) 95,01 %
16.11.2017 07:00 6,7 C 6,4 C 5,6 C 99 % 2 lf 1022,7 hPa 0,0 l/m 0,00 h 0,00 h 0 W/m 13,1 km/h (3 Bft) 96,80 %
16.11.2017 08:00 6,1 C 6,1 C 5,0 C 98 % 0 lf 1023,0 hPa 0,0 l/m 0,00 h 0,00 h 10 W/m 15,6 km/h (3 Bft) 97,86 %
16.11.2017 09:00 6,0 C 6,1 C 5,0 C 97 % 0 lf 1023,4 hPa 0,0 l/m 0,00 h 0,00 h 19 W/m 15,1 km/h (3 Bft) 95,72 %
16.11.2017 10:00 6,1 C 6,8 C 5,7 C 95 % 0 lf 1023,3 hPa 0,0 l/m 0,00 h 0,00 h 94 W/m 17,6 km/h (3 Bft) 94,59 %
16.11.2017 11:00 6,9 C 8,3 C 6,6 C 94 % 0 lf 1023,0 hPa 0,0 l/m 0,20 h 0,00 h 150 W/m 16,4 km/h (3 Bft) 97,79 %
16.11.2017 12:00 7,8 C 8,7 C 7,6 C 92 % 0 lf 1022,8 hPa 0,0 l/m 0,03 h 0,00 h 139 W/m 13,7 km/h (3 Bft) 96,32 %
16.11.2017 13:00 8,4 C 9,0 C 8,1 C 91 % 0 lf 1022,3 hPa 0,0 l/m 0,00 h 0,00 h 95 W/m 14,6 km/h (3 Bft) 94,67 %
16.11.2017 14:00 8,7 C 8,9 C 7,8 C 91 % 0 lf 1021,8 hPa 0,0 l/m 0,00 h 0,00 h 55 W/m 11,4 km/h (2 Bft) 97,91 %
16.11.2017 15:00 8,8 C 8,5 C 7,5 C 91 % 1 lf 1021,5 hPa 0,0 l/m 0,00 h 0,03 h 19 W/m 7,8 km/h (2 Bft) 96,44 %
16.11.2017 16:00 8,6 C 8,1 C 7,1 C 93 % 0 lf 1021,6 hPa 0,0 l/m 0,00 h 0,00 h 7 W/m 7,4 km/h (2 Bft) 97,31 %
16.11.2017 17:00 8,6 C 8,3 C 7,2 C 94 % 0 lf 1021,6 hPa 0,0 l/m 0,00 h 0,00 h 0 W/m 10,1 km/h (2 Bft) 94,88 %
16.11.2017 18:00 8,8 C 8,5 C 7,7 C 95 % 1 lf 1021,8 hPa 0,0 l/m 0,00 h 0,00 h 0 W/m 8,2 km/h (2 Bft) 97,72 %
16.11.2017 19:00 9,0 C 8,9 C 7,8 C 96 % 1 lf 1022,2 hPa 0,0 l/m 0,00 h 0,00 h 0 W/m 9,0 km/h (2 Bft) 95,65 %
16.11.2017 20:00 9,2 C 8,9 C 7,8 C 96 % 1 lf 1022,4 hPa 0,0 l/m 0,00 h 0,00 h 0 W/m 10,2 km/h (2 Bft) 97,51 %
16.11.2017 21:00 9,2 C 8,9 C 7,8 C 96 % 1 lf 1022,6 hPa 0,0 l/m 0,00 h 0,00 h 0 W/m 12,2 km/h (3 Bft) 94,45 %
16.11.2017 22:00 9,2 C 8,9 C 7,8 C 96 % 1 lf 1022,6 hPa 0,0 l/m 0,00 h 0,00 h 0 W/m 11,7 km/h (2 Bft) 97,15 %
16.11.2017 23:00 9,2 C 8,9 C 7,8 C 97 % 1 lf 1022,8 hPa 0,0 l/m 0,00 h 0,00 h 0 W/m 11,4 km/h (2 Bft) 96,22 %
17.11.2017 00:00 9,1 C 8,9 C 7,7 C 97 % 2 lf 1022,8 hPa 0,0 l/m 0,00 h 0,03 h 0 W/m 11,6 km/h (2 Bft) 96,88 %
17.11.2017 01:00 9,1 C 8,5 C 7,8 C 97 % 15 lf 1023,0 hPa 0,8 l/m 0,00 h 0,70 h 0 W/m 9,6 km/h (2 Bft) 95,09 %
17.11.2017 02:00 9,1 C 8,4 C 7,6 C 97 % 15 lf 1023,3 hPa 0,2 l/m 0,00 h 0,37 h 0 W/m 11,2 km/h (2 Bft) 97,22 %
17.11.2017 03:00 8,7 C 8,1 C 7,2 C 97 % 15 lf 1023,7 hPa 0,0 l/m 0,00 h 0,07 h 0 W/m 10,1 km/h (2 Bft) 96,72 %
17.11.2017 04:00 8,3 C 7,5 C 6,5 C 97 % 15 lf 1024,2 hPa 0,0 l/m 0,00 h 0,00 h 0 W/m 9,2 km/h (2 Bft) 96,87 %
17.11.2017 05:00 7,5 C 6,2 C 5,0 C 97 % 15 lf 1024,5 hPa 0,0 l/m 0,00 h 0,00 h 0 W/m 6,5 km/h (2 Bft) 95,33 %
17.11.2017 06:00 6,5 C 4,7 C 3,7 C 97 % 15 lf 1024,8 hPa 0,0 l/m 0,00 h 0,00 h 0 W/m 5,0 km/h (1 Bft) 96,43 %
17.11.2017 07:00 5,5 C 3,9 C 3,1 C 97 % 15 lf 1025,4 hPa 0,0 l/m 0,00 h 0,00 h 5 W/m 4,6 km/h (1 Bft) 98,08 %
17.11.2017 08:00 4,8 C 4,0 C 3,0 C 97 % 15 lf 1026,1 hPa 0,2 l/m 0,57 h 0,00 h 39 W/m 3,7 km/h (1 Bft) 94,73 %
17.11.2017 09:00 4,8 C 5,1 C 3,4 C 97 % 15 lf 1026,6 hPa 0,0 l/m 0,73 h 0,00 h 117 W/m 4,7 km/h (1 Bft) 96,15 %
17.11.2017 10:00 5,8 C 11,8 C 4,7 C 98 % 15 lf 1026,6 hPa 0,0 l/m 1,00 h 0,00 h 221 W/m 6,4 km/h (2 Bft) 97,93 %
17.11.2017 11:00 7,1 C 19,4 C 5,6 C 98 % 11 lf 1026,6 hPa 0,0 l/m 0,97 h 0,00 h 268 W/m 7,2 km/h (2 Bft) 95,48 %
17.11.2017 12:00 8,9 C 22,0 C 6,2 C 89 % 0 lf 1026,3 hPa 0,0 l/m 1,00 h 0,00 h 298 W/m 9,4 km/h (2 Bft) 97,83 %
17.11.2017 13:00 10,1 C 20,0 C 6,8 C 73 % 0 lf 1026,1 hPa 0,0 l/m 1,00 h 0,00 h 278 W/m 10,8 km/h (2 Bft) 97,08 %
17.11.2017 14:00 10,1 C 14,8 C 7,4 C 68 % 0 lf 1026,0 hPa 0,0 l/m 0,60 h 0,00 h 153 W/m 10,4 km/h (2 Bft) 98,65 %
17.11.2017 15:00 9,2 C 8,2 C 5,1 C 71 % 0 lf 1025,8 hPa 0,0 l/m 0,13 h 0,00 h 44 W/m 4,9 km/h (1 Bft) 92,60 %
17.11.2017 16:00 7,4 C 5,2 C 2,8 C 78 % 0 lf 1025,6 hPa 0,0 l/m 0,00 h 0,00 h 15 W/m 1,6 km/h (1 Bft) 98,36 %
17.11.2017 17:00 5,4 C 3,3 C 1,3 C 83 % 1 lf 1025,3 hPa 0,0 l/m 0,00 h 0,00 h 0 W/m 0,2 km/h (0 Bft) 97,65 %
17.11.2017 18:00 3,8 C 1,8 C 0,6 C 86 % 3 lf 1025,2 hPa 0,0 l/m 0,00 h 0,00 h 0 W/m 2,3 km/h (1 Bft) 96,34 %
17.11.2017 19:00 3,0 C 2,2 C 1,2 C 88 % 3 lf 1025,6 hPa 0,0 l/m 0,00 h 0,00 h 0 W/m 1,1 km/h (1 Bft) 95,09 %
17.11.2017 20:00 2,9 C 2,4 C 0,8 C 91 % 3 lf 1025,0 hPa 0,0 l/m 0,00 h 0,00 h 0 W/m 0,7 km/h (0 Bft) 96,51 %
17.11.2017 21:00 2,6 C 1,9 C 0,9 C 92 % 5 lf 1024,8 hPa 0,0 l/m 0,00 h 0,00 h 0 W/m 3,4 km/h (1 Bft) 97,22 %
17.11.2017 22:00 2,8 C 3,0 C 1,4 C 94 % 1 lf 1024,6 hPa 0,0 l/m 0,00 h 0,00 h 0 W/m 8,2 km/h (2 Bft) 96,58 %
17.11.2017 23:00 2,8 C 2,4 C 1,1 C 94 % 1 lf 1024,5 hPa 0,0 l/m 0,00 h 0,00 h 0 W/m 7,4 km/h (2 Bft) 97,22 %
18.11.2017 00:00 2,8 C 2,6 C 1,1 C 94 % 1 lf 1024,2 hPa 0,0 l/m 0,00 h 0,00 h 0 W/m 5,6 km/h (1 Bft) 95,45 %
18.11.2017 01:00 2,5 C 2,0 C 0,7 C 93 % 1 lf 1023,9 hPa 0,0 l/m 0,00 h 0,00 h 0 W/m 6,3 km/h (2 Bft) 95,75 %
18.11.2017 02:00 2,4 C 2,2 C 0,9 C 94 % 1 lf 1023,5 hPa 0,0 l/m 0,00 h 0,00 h 0 W/m 9,6 km/h (2 Bft) 98,29 %
18.11.2017 03:00 2,4 C 2,0 C 0,8 C 94 % 1 lf 1022,8 hPa 0,0 l/m 0,00 h 0,00 h 0 W/m 12,3 km/h (3 Bft) 96,58 %
18.11.2017 04:00 2,2 C 1,9 C 0,9 C 94 % 1 lf 1022,3 hPa 0,0 l/m 0,00 h 0,00 h 0 W/m 12,2 km/h (2 Bft) 94,99 %
18.11.2017 05:00 2,6 C 2,8 C 1,8 C 94 % 0 lf 1021,8 hPa 0,0 l/m 0,00 h 0,00 h 0 W/m 15,3 km/h (3 Bft) 96,36 %
18.11.2017 06:00 3,0 C 3,2 C 2,2 C 93 % 0 lf 1021,1 hPa 0,0 l/m 0,00 h 0,00 h 0 W/m 14,5 km/h (3 Bft) 96,49 %
18.11.2017 07:00 3,4 C 3,5 C 2,5 C 92 % 0 lf 1021,0 hPa 0,0 l/m 0,00 h 0,00 h 0 W/m 16,5 km/h (3 Bft) 96,94 %
18.11.2017 08:00 3,9 C 3,9 C 2,8 C 89 % 0 lf 1020,8 hPa 0,0 l/m 0,00 h 0,00 h 9 W/m 20,2 km/h (4 Bft) 95,95 %
18.11.2017 09:00 4,2 C 4,3 C 3,3 C 88 % 0 lf 1020,4 hPa 0,0 l/m 0,00 h 0,00 h 28 W/m 22,4 km/h (4 Bft) 95,62 %
18.11.2017 10:00 4,6 C 4,7 C 3,8 C 86 % 0 lf 1019,7 hPa 0,0 l/m 0,00 h 0,00 h 29 W/m 28,2 km/h (4 Bft) 97,95 %
18.11.2017 11:00 4,9 C 5,5 C 4,6 C 86 % 0 lf 1019,4 hPa 0,0 l/m 0,00 h 0,00 h 84 W/m 28,1 km/h (4 Bft) 96,08 %
18.11.2017 12:00 5,8 C 6,5 C 5,7 C 84 % 0 lf 1018,5 hPa 0,0 l/m 0,00 h 0,00 h 118 W/m 32,6 km/h (5 Bft) 95,61 %
18.11.2017 13:00 6,5 C 8,4 C 6,1 C 82 % 0 lf 1017,6 hPa 0,0 l/m 0,47 h 0,00 h 164 W/m 33,8 km/h (5 Bft) 96,73 %
18.11.2017 14:00 6,9 C 8,9 C 5,8 C 80 % 0 lf 1017,0 hPa 0,0 l/m 0,47 h 0,00 h 127 W/m 39,4 km/h (6 Bft) 96,58 %
18.11.2017 15:00 6,7 C 6,5 C 5,1 C 83 % 7 lf 1016,6 hPa 0,0 l/m 0,00 h 0,27 h 35 W/m 34,5 km/h (5 Bft) 94,47 %
18.11.2017 16:00 6,2 C 6,0 C 4,5 C 87 % 1 lf 1016,6 hPa 0,0 l/m 0,00 h 0,10 h 8 W/m 30,7 km/h (5 Bft) 97,73 %
18.11.2017 17:00 6,2 C 6,0 C 4,8 C 89 % 0 lf 1016,2 hPa 0,0 l/m 0,00 h 0,00 h 0 W/m 29,3 km/h (5 Bft) 95,94 %
18.11.2017 18:00 6,4 C 6,1 C 4,9 C 90 % 0 lf 1015,9 hPa 0,0 l/m 0,00 h 0,00 h 0 W/m 27,7 km/h (4 Bft) 97,47 %
18.11.2017 19:00 6,5 C 6,0 C 4,7 C 91 % 10 lf 1015,5 hPa 0,8 l/m 0,00 h 0,70 h 0 W/m 23,0 km/h (4 Bft) 95,79 %
18.11.2017 20:00 6,2 C 5,6 C 4,4 C 94 % 15 lf 1015,6 hPa 0,0 l/m 0,00 h 0,17 h 0 W/m 12,3 km/h (3 Bft) 95,73 %
18.11.2017 21:00 5,9 C 5,1 C 4,2 C 94 % 15 lf 1015,3 hPa 0,2 l/m 0,00 h 0,20 h 0 W/m 8,5 km/h (2 Bft) 96,37 %
18.11.2017 22:00 5,7 C 4,8 C 3,7 C 95 % 15 lf 1014,9 hPa 0,0 l/m 0,00 h 0,00 h 0 W/m 6,5 km/h (2 Bft) 97,93 %
18.11.2017 23:00 5,4 C 5,0 C 3,9 C 95 % 15 lf 1014,6 hPa 0,0 l/m 0,00 h 0,00 h 0 W/m 7,5 km/h (2 Bft) 94,73 %
19.11.2017 00:00 5,6 C 5,2 C 4,3 C 96 % 15 lf 1014,3 hPa 0,0 l/m 0,00 h 0,13 h 0 W/m 14,5 km/h (3 Bft) 96,33 %
19.11.2017 01:00 5,5 C 5,0 C 3,9 C 96 % 15 lf 1014,1 hPa 0,0 l/m 0,00 h 0,07 h 0 W/m 16,0 km/h (3 Bft) 95,94 %
19.11.2017 02:00 5,3 C 4,5 C 3,6 C 96 % 15 lf 1014,2 hPa 0,0 l/m 0,00 h 0,07 h 0 W/m 14,0 km/h (3 Bft) 98,29 %
19.11.2017 03:00 5,0 C 4,2 C 3,3 C 96 % 15 lf 1014,4 hPa 0,0 l/m 0,00 h 0,13 h 0 W/m 10,5 km/h (2 Bft) 94,26 %
19.11.2017 04:00 4,3 C 3,4 C 2,2 C 96 % 15 lf 1014,5 hPa 0,0 l/m 0,00 h 0,03 h 0 W/m 12,9 km/h (3 Bft) 95,81 %
19.11.2017 05:00 3,7 C 2,8 C 1,5 C 96 % 15 lf 1014,7 hPa 0,0 l/m 0,00 h 0,02 h 0 W/m 12,8 km/h (3 Bft) 97,21 %
19.11.2017 06:00 3,5 C 3,1 C 2,0 C 96 % 15 lf 1014,9 hPa 0,2 l/m 0,00 h 0,07 h 0 W/m 15,8 km/h (3 Bft) 95,14 %
19.11.2017 07:00 3,7 C 3,2 C 2,1 C 96 % 15 lf 1015,3 hPa 0,0 l/m 0,00 h 0,25 h 0 W/m 16,3 km/h (3 Bft) 97,48 %
19.11.2017 08:00 3,8 C 3,3 C 2,0 C 95 % 15 lf 1015,8 hPa 0,0 l/m 0,10 h 0,03 h 22 W/m 17,0 km/h (3 Bft) 94,84 %
19.11.2017 09:00 4,1 C 4,3 C 2,8 C 95 % 11 lf 1016,2 hPa 0,0 l/m 0,60 h 0,00 h 95 W/m 22,2 km/h (4 Bft) 96,58 %
19.11.2017 10:00 5,4 C 9,7 C 4,2 C 95 % 0 lf 1016,5 hPa 0,0 l/m 0,93 h 0,00 h 199 W/m 23,8 km/h (4 Bft) 97,78 %
19.11.2017 11:00 6,8 C 11,9 C 5,3 C 91 % 0 lf 1016,8 hPa 0,0 l/m 0,77 h 0,00 h 223 W/m 26,0 km/h (4 Bft) 95,00 %
19.11.2017 12:00 8,4 C 13,9 C 7,3 C 85 % 0 lf 1016,9 hPa 0,0 l/m 0,90 h 0,00 h 251 W/m 25,9 km/h (4 Bft) 97,02 %
19.11.2017 13:00 8,8 C 11,0 C 7,5 C 82 % 2 lf 1016,9 hPa 0,0 l/m 0,40 h 0,10 h 152 W/m 26,6 km/h (4 Bft) 94,38 %
19.11.2017 14:00 8,6 C 9,9 C 6,9 C 80 % 0 lf 1017,1 hPa 0,0 l/m 0,33 h 0,07 h 99 W/m 27,2 km/h (4 Bft) 96,75 %
19.11.2017 15:00 7,5 C 7,8 C 6,3 C 87 % 0 lf 1017,3 hPa 0,0 l/m 0,70 h 0,00 h 88 W/m 21,9 km/h (4 Bft) 98,37 %
19.11.2017 16:00 7,4 C 7,1 C 5,7 C 87 % 1 lf 1017,8 hPa 0,0 l/m 0,17 h 0,07 h 17 W/m 20,8 km/h (4 Bft) 93,80 %
19.11.2017 17:00 6,5 C 5,9 C 4,5 C 88 % 7 lf 1018,3 hPa 0,0 l/m 0,00 h 0,23 h 0 W/m 16,0 km/h (3 Bft) 96,87 %
19.11.2017 18:00 5,9 C 5,2 C 3,5 C 91 % 14 lf 1018,8 hPa 0,0 l/m 0,00 h 0,00 h 0 W/m 16,9 km/h (3 Bft) 97,20 %
19.11.2017 19:00 5,7 C 5,2 C 3,6 C 92 % 2 lf 1019,3 hPa 0,0 l/m 0,00 h 0,03 h 0 W/m 18,4 km/h (3 Bft) 96,44 %
19.11.2017 20:00 5,5 C 5,1 C 3,7 C 93 % 1 lf 1019,6 hPa 0,0 l/m 0,00 h 0,00 h 0 W/m 18,5 km/h (3 Bft) 97,13 %
19.11.2017 21:00 5,3 C 4,7 C 3,3 C 94 % 14 lf 1020,2 hPa 0,2 l/m 0,00 h 0,27 h 0 W/m 19,4 km/h (3 Bft) 94,52 %
19.11.2017 22:00 5,1 C 4,8 C 3,3 C 95 % 15 lf 1020,6 hPa 0,0 l/m 0,00 h 0,10 h 0 W/m 19,6 km/h (3 Bft) 97,51 %
19.11.2017 23:00 5,2 C 5,0 C 3,3 C 95 % 10 lf 1020,7 hPa 0,0 l/m 0,00 h 0,07 h 0 W/m 16,1 km/h (3 Bft) 96,45 %
Min-Datum _ 14.11.17 14.11.17 14.11.17 17.11.17 13.11.17 13.11.17 - - - - 13.11.17 13.11.17
_ Min-Zeit 04:20 01:10 03:18 13:48 10:42 00:00 - - - - 17:00 00:02
Minimum _ 1,6 C 0,6 C -0,6 C 67 % 0 lf 1008,0 hPa - - - - 0,0 km/h (0 Bft) 13,33 %
Max-Datum _ 17.11.17 17.11.17 14.11.17 15.11.17 13.11.17 17.11.17 17.11.17 13.11.17 15.11.17 19.11.17 18.11.17 13.11.17
_ Max-Zeit 13:24 12:38 13:38 15:48 04:18 09:30 01:16 12:10 17:30 12:14 14:00 00:42
Maximum _ 10,2 C 23,3 C 8,9 C 99 % 15 lf 1026,7 hPa 0,8 l/m 0,07 h 0,08 h 399 W/m 47,3 km/h
W-SW (6 Bft)
100,00 %
Durchschnitt _ 6,3 C 6,6 C 4,8 C 93 % 7 lf 1021,1 hPa #5,8 l/m #19:56 h #7:51 h 96 W/m 13,6 km/h (3 Bft) 96,39 %
© 2017 W. Hausmann